TimeEDT,TemperatureF,Dew PointF,Humidity,Sea Level PressureIn,VisibilityMPH,Wind Direction,Wind SpeedMPH,Gust SpeedMPH,PrecipitationIn,Events,Conditions,WindDirDegrees,DateUTC
12:15 AM,63.7,63.0,97,29.83,7.0,SSW,10.4,18.4,N/A,,Overcast,210,2012-10-14 04:15:00
12:35 AM,64.4,63.1,96,29.83,7.0,SSW,10.4,18.4,N/A,,Overcast,200,2012-10-14 04:35:00
1:15 AM,65.3,63.9,95,29.82,7.0,SSW,13.8,18.4,N/A,,Overcast,210,2012-10-14 05:15:00
1:35 AM,65.3,64.0,96,29.82,7.0,SW,9.2,-,N/A,,Overcast,220,2012-10-14 05:35:00
1:55 AM,64.9,64.4,98,29.82,3.0,SW,6.9,-,N/A,Rain,Light Rain,220,2012-10-14 05:55:00
2:15 AM,64.9,64.4,98,29.82,4.0,SW,6.9,-,N/A,Rain,Rain,220,2012-10-14 06:15:00
2:36 AM,64.9,64.8,99,29.81,2.5,SSW,8.1,-,N/A,Rain,Rain,210,2012-10-14 06:36:00
2:55 AM,64.9,64.8,99,29.81,4.0,SSW,6.9,-,N/A,Rain,Rain,210,2012-10-14 06:55:00
3:35 AM,65.3,64.9,99,29.81,4.0,SSW,8.1,-,N/A,Rain,Light Rain,210,2012-10-14 07:35:00
3:55 AM,65.3,64.8,98,29.80,5.0,SSW,9.2,-,N/A,Rain,Light Rain,200,2012-10-14 07:55:00
4:15 AM,65.3,64.6,98,29.79,5.0,SSW,9.2,-,N/A,,Mostly Cloudy,200,2012-10-14 08:15:00
4:35 AM,65.3,64.6,98,29.79,5.0,SSW,9.2,17.3,N/A,,Mostly Cloudy,210,2012-10-14 08:35:00
4:55 AM,65.7,64.6,96,29.79,7.0,SSW,8.1,17.3,N/A,,Mostly Cloudy,210,2012-10-14 08:55:00
5:15 AM,65.7,64.4,96,29.80,7.0,SSW,6.9,-,N/A,,Overcast,200,2012-10-14 09:15:00
5:35 AM,65.5,64.6,97,29.80,5.0,SSW,10.4,-,N/A,,Drizzle,200,2012-10-14 09:35:00
5:55 AM,65.3,64.4,97,29.79,5.0,SSW,8.1,-,N/A,,Drizzle,200,2012-10-14 09:55:00
6:15 AM,64.9,64.4,98,29.79,5.0,South,6.9,-,N/A,,Drizzle,190,2012-10-14 10:15:00
6:35 AM,64.8,64.4,99,29.78,4.0,South,5.8,-,N/A,Rain,Rain,180,2012-10-14 10:35:00
6:55 AM,64.4,64.4,100,29.78,4.0,South,5.8,-,N/A,Rain,Rain,170,2012-10-14 10:55:00
7:16 AM,64.6,64.4,99,29.77,4.0,South,9.2,-,N/A,Rain,Rain,180,2012-10-14 11:16:00
7:35 AM,64.4,64.4,100,29.76,4.0,SSE,6.9,-,N/A,Rain,Light Rain,160,2012-10-14 11:35:00
7:55 AM,64.4,64.4,100,29.75,4.0,SSE,6.9,-,N/A,Rain,Light Rain,150,2012-10-14 11:55:00
8:15 AM,63.9,63.9,100,29.74,2.5,SSE,6.9,-,N/A,Rain,Light Rain,160,2012-10-14 12:15:00
8:35 AM,64.2,64.2,100,29.74,4.0,South,8.1,-,N/A,,Overcast,170,2012-10-14 12:35:00
8:55 AM,64.6,64.4,99,29.74,4.0,South,8.1,-,N/A,,Overcast,170,2012-10-14 12:55:00
9:15 AM,65.3,64.4,97,29.73,5.0,South,6.9,-,N/A,,Overcast,180,2012-10-14 13:15:00
9:35 AM,66.2,64.6,94,29.71,7.0,South,12.7,19.6,N/A,,Mostly Cloudy,180,2012-10-14 13:35:00
9:55 AM,66.2,64.4,94,29.69,5.0,South,9.2,-,N/A,,Mostly Cloudy,170,2012-10-14 13:55:00
10:15 AM,66.2,64.4,94,29.68,7.0,SSE,9.2,19.6,N/A,,Scattered Clouds,160,2012-10-14 14:15:00
10:35 AM,66.4,64.4,93,29.66,7.0,SSE,10.4,16.1,N/A,Rain,Light Rain,160,2012-10-14 14:35:00
10:55 AM,66.7,64.0,91,29.64,7.0,SSE,13.8,19.6,N/A,,Overcast,150,2012-10-14 14:55:00
11:15 AM,67.3,63.9,89,29.63,10.0,South,15.0,20.7,N/A,,Overcast,170,2012-10-14 15:15:00
11:35 AM,67.6,63.3,86,29.62,10.0,South,13.8,23.0,N/A,,Overcast,180,2012-10-14 15:35:00
11:55 AM,67.3,63.0,86,29.62,10.0,South,15.0,21.9,N/A,,Overcast,180,2012-10-14 15:55:00
12:15 PM,66.9,62.6,86,29.62,10.0,South,16.1,24.2,N/A,,Overcast,180,2012-10-14 16:15:00
12:35 PM,67.1,62.1,84,29.62,10.0,South,16.1,25.3,N/A,,Overcast,190,2012-10-14 16:35:00
12:55 PM,67.3,61.9,83,29.62,10.0,South,13.8,28.8,N/A,,Overcast,180,2012-10-14 16:55:00
1:16 PM,68.5,62.2,80,29.60,10.0,South,16.1,27.6,N/A,,Overcast,180,2012-10-14 17:16:00
1:35 PM,68.5,61.7,79,29.60,10.0,South,17.3,25.3,N/A,,Mostly Cloudy,180,2012-10-14 17:35:00
1:55 PM,68.5,61.5,78,29.59,10.0,South,16.1,28.8,N/A,,Overcast,180,2012-10-14 17:55:00
2:15 PM,68.4,61.3,78,29.57,10.0,South,13.8,26.5,N/A,,Mostly Cloudy,180,2012-10-14 18:15:00
2:35 PM,69.8,61.7,75,29.56,10.0,South,17.3,24.2,N/A,,Scattered Clouds,180,2012-10-14 18:35:00
2:55 PM,70.9,61.2,71,29.54,10.0,South,15.0,25.3,N/A,,Scattered Clouds,180,2012-10-14 18:55:00
3:15 PM,70.9,60.3,69,29.53,10.0,South,10.4,27.6,N/A,,Mostly Cloudy,180,2012-10-14 19:15:00
3:35 PM,70.7,59.9,69,29.52,10.0,South,18.4,27.6,N/A,,Overcast,180,2012-10-14 19:35:00
4:15 PM,70.3,60.1,70,29.51,10.0,South,17.3,27.6,N/A,,Mostly Cloudy,180,2012-10-14 20:15:00
4:35 PM,69.6,60.8,73,29.48,10.0,South,12.7,20.7,N/A,,Overcast,180,2012-10-14 20:35:00
4:55 PM,70.5,60.3,70,29.48,10.0,South,18.4,26.5,N/A,,Mostly Cloudy,180,2012-10-14 20:55:00
5:15 PM,70.9,59.4,67,29.48,10.0,SSW,13.8,27.6,N/A,,Scattered Clouds,200,2012-10-14 21:15:00
5:35 PM,69.8,58.6,68,29.47,10.0,SSW,16.1,25.3,N/A,,Scattered Clouds,200,2012-10-14 21:35:00
5:55 PM,69.8,58.8,68,29.46,10.0,SSW,12.7,24.2,N/A,,Mostly Cloudy,200,2012-10-14 21:55:00
6:15 PM,70.0,58.6,67,29.46,10.0,South,16.1,28.8,N/A,,Mostly Cloudy,190,2012-10-14 22:15:00
6:36 PM,69.8,57.7,65,29.45,10.0,South,16.1,27.6,N/A,,Scattered Clouds,190,2012-10-14 22:36:00
6:55 PM,68.7,57.7,68,29.44,10.0,South,15.0,24.2,N/A,Rain,Rain,180,2012-10-14 22:55:00
7:15 PM,68.2,56.8,67,29.43,10.0,SSW,15.0,24.2,N/A,,Scattered Clouds,200,2012-10-14 23:15:00
7:35 PM,67.6,56.3,67,29.43,10.0,SSW,15.0,24.2,N/A,,Clear,200,2012-10-14 23:35:00
7:55 PM,67.5,56.3,67,29.42,10.0,SSW,18.4,29.9,N/A,,Clear,200,2012-10-14 23:55:00
8:15 PM,66.7,58.1,74,29.42,10.0,SSW,17.3,25.3,N/A,,Mostly Cloudy,200,2012-10-15 00:15:00
8:35 PM,66.2,58.5,76,29.42,10.0,SSW,11.5,19.6,N/A,,Light Drizzle,210,2012-10-15 00:35:00
8:55 PM,64.2,58.8,83,29.41,10.0,West,5.8,10.4,N/A,,Overcast,270,2012-10-15 00:55:00
9:15 PM,61.3,59.0,92,29.41,10.0,West,8.1,-,N/A,Rain,Rain,270,2012-10-15 01:15:00
9:35 PM,59.9,59.2,97,29.41,10.0,WSW,4.6,-,N/A,Rain,Light Rain,240,2012-10-15 01:35:00
9:55 PM,59.2,59.0,99,29.39,10.0,Calm,Calm,-,N/A,,Overcast,0,2012-10-15 01:55:00
10:15 PM,59.9,59.5,99,29.39,4.0,WSW,9.2,-,N/A,Rain,Rain,240,2012-10-15 02:15:00
10:35 PM,60.8,59.5,96,29.39,7.0,SSW,11.5,18.4,N/A,Rain,Rain,210,2012-10-15 02:35:00
10:55 PM,59.9,59.4,98,29.41,4.0,WSW,13.8,23.0,N/A,Rain,Rain,250,2012-10-15 02:55:00
11:16 PM,58.6,58.3,99,29.42,4.0,WSW,13.8,20.7,N/A,Rain,Rain,250,2012-10-15 03:16:00
11:35 PM,57.0,56.3,97,29.44,3.0,West,21.9,32.2,N/A,,Drizzle,280,2012-10-15 03:35:00
11:55 PM,54.7,52.9,94,29.47,4.0,WNW,16.1,23.0,N/A,Rain,Rain,290,2012-10-15 03:55:00